Regional Weather Roundup
Issued by NWS

Home | Current Version | Previous Version | Text Only | Print | Product List | Glossary Off
Versions: 1 2 3 4 5 6 7 8 9 10 11 12 13 14 15 16 17 18 19 20 21 22 23 24 25 26 27 28 29 30 31 32 33 34 35 36 37 38 39 40 41 42 43 44 45 46 47 48 49 50

000
ASUS43 KIND 191759
RWRIN

WEATHER ROUNDUP FOR INDIANA
NATIONAL WEATHER SERVICE INDIANAPOLIS IN
200 PM EDT SUN APR 19 2015

NOTE: "FAIR" INDICATES FEW OR NO CLOUDS BELOW 12,000 FEET WITH NO
SIGNIFICANT WEATHER AND/OR OBSTRUCTIONS TO VISIBILITY.

* - STATION DOES NOT REPORT WEATHER SUCH AS PRECIPITATION OR FOG.

+ - STATION NOT QUALITY CONTROLLED BY THE NATIONAL WEATHER SERVICE.
    USE DATA WITH CAUTION...ESPECIALLY DEWPOINT AND RELATIVE
    HUMIDITY OBSERVATIONS.

INZ001>003-010>013-019-020-191900-
NORTHWEST INDIANA

CITY           SKY/WX    TMP DP  RH WIND       PRES   REMARKS
GARY /AIRPORT/ PTSUNNY  N/A N/A N/A SE18      29.66F
RENSSELAER +   DRIZZLE   61  46  59 E10       29.67F

$$

LMZ046-743>745-191900-
SOUTHERN LAKE MICHIGAN

STATION/POSITION TIME  TEMP WIND        PRES
                       AIR  DIR/SP/G
                 (UTC) (F)  (DEG/KT/KT) (MB)
BURNS HARBOR     1700   70  110/ 18/ 22 1005.4F
MICHIGAN CITY    1700   69   90/ 14/ 20   N/A
4NW MICH CITY    1700   62  130/ 16/ 17   N/A

$$

INZ004-005-014>016-021>024-191900-
NORTH CENTRAL INDIANA

CITY           SKY/WX    TMP DP  RH WIND       PRES   REMARKS
ELKHART        CLOUDY    66  34  30 E17       29.72F
GOSHEN         CLOUDY    65  44  46 E15G24    29.72F
6HR MIN TEMP:  50; 6HR MAX TEMP:  65;

PERU/GRISSOM   LGT RAIN  55  52  88 E13       29.67F
SOUTH BEND     CLOUDY    68  38  33 E18G25    29.70F
6HR MIN TEMP:  54; 6HR MAX TEMP:  70;


$$

INZ006>009-017-018-025>027-191900-
NORTHEAST INDIANA

CITY           SKY/WX    TMP DP  RH WIND       PRES   REMARKS
ANGOLA *+      MOSUNNY   63  39  42 E15       29.75F
FORT WAYNE     LGT RAIN  62  46  55 E14       29.72F
6HR MIN TEMP:  49; 6HR MAX TEMP:  64; 6HR PCP: TRACE;


$$

INZ028-029-035-036-043>045-051>053-191900-
WEST CENTRAL INDIANA

CITY           SKY/WX    TMP DP  RH WIND       PRES   REMARKS
CRAWFORDSVL +  LGT RAIN  54  50  87 E14       29.62F
6HR MIN TEMP:  53; 6HR MAX TEMP:  57; 6HR PCP:  0.33;

GREENCASTLE +  LGT RAIN  55  52  88 E12       29.62F
LAFAYETTE      LGT RAIN  54  51  90 NE14      29.64F FOG
6HR MIN TEMP:  51; 6HR MAX TEMP:  59; 6HR PCP:  0.02;

TERRE HAUTE    LGT RAIN  59  57  93 E12       29.58F
6HR MIN TEMP:  57; 6HR MAX TEMP:  62; 6HR PCP:  0.47;


$$

INZ030>032-037>040-046>048-054>057-064-065-191900-
CENTRAL INDIANA

CITY           SKY/WX    TMP DP  RH WIND       PRES   REMARKS
COLUMBUS       LGT RAIN  59  57  94 E9        29.64F FOG
INDIANAPOLIS   RAIN      57  55  93 E12       29.62F FOG
6HR MIN TEMP:  56; 6HR MAX TEMP:  61; 6HR PCP:  0.43;

-EAGLE CREEK   HVY RAIN  56  55  97 E9        29.63F FOG
6HR MIN TEMP:  55; 6HR MAX TEMP:  60; 6HR PCP:  0.65;

KOKOMO *+      CLOUDY    55  48  76 E13       29.68F
6HR MIN TEMP:  48; 6HR MAX TEMP:  61; 6HR PCP:  0.07;

MT COMFORT *+  CLOUDY    57 N/A N/A E13       29.65F
SHELBYVILLE    LGT RAIN  61  57  87 E14       29.64F FOG
6HR MIN TEMP:  57; 6HR MAX TEMP:  63; 6HR PCP:  0.53;


$$

INZ033-034-041-042-049-050-058-059-191900-
EAST CENTRAL INDIANA

CITY           SKY/WX    TMP DP  RH WIND       PRES   REMARKS
MUNCIE         RAIN      59  55  87 E12       29.69F FOG
6HR MIN TEMP:  52; 6HR MAX TEMP:  60; 6HR PCP:  0.17;


$$

INZ060-061-067>069-081>083-085>088-191900-
SOUTHWEST INDIANA

CITY           SKY/WX    TMP DP  RH WIND       PRES   REMARKS
EVANSVILLE     LGT RAIN  67  63  87 VRB5      29.56S
6HR MIN TEMP:  59; 6HR MAX TEMP:  67; 6HR PCP:  1.17;

HUNTINGBURG *+ CLOUDY    66  63  88 E5        29.57F
6HR MIN TEMP:  59; 6HR MAX TEMP:  66; 6HR PCP:  0.61;


$$

INZ062-063-066-070>080-084-089>092-191900-
SOUTH CENTRAL AND SOUTHEAST INDIANA

CITY           SKY/WX    TMP DP  RH WIND       PRES   REMARKS
BLOOMINGTON    RAIN      59  58  96 E10       29.60F FOG
6HR MIN TEMP:  56; 6HR MAX TEMP:  64; 6HR PCP:  0.72;

MADISON *+     CLOUDY    63  59  88 E10G18    29.63F

$$




USA.gov is the U.S. government's official web portal to all federal, state and local government web resources and services.